Home > Time Zones > World Clock > Weather > Spain > Ceuta > Past weeks

Flag for Spain Weather past 2 weeks in Ceuta, Ceuta, Spain

Now
77 °F

Sunny.


Feels Like: 79 °F
Forecast: 67 / 78 °F
Wind: 7 mph from Southwest

Location: Gibraltar Airport

Current Time: May 30, 2015 at 11:08:48 PM

Latest Report: May 30, 2015 at 9:50 PM


Visibility: 10 mi

Pressure: 30.01 "Hg

Humidity: 54%

Dew point: 59 °F

Location of CeutaLocation

Historic Weather in Ceuta — Graph

°F

Ceuta temperature yesterday

Maximum temperature yesterday: 79 °F (at 2:50 PM)
Minimum temperature yesterday: 68 °F (at 1:50 AM)
Average temperature yesterday: 72 °F

Past Weeks' High & Low Weather Summary

 TemperatureHumidityPressure
High81 °F (May 30, 3:50 PM)100% (May 26, 1:50 AM)30.21 "Hg (May 26, 1:50 AM)
Low61 °F (May 24, 9:50 AM)44% (May 29, 11:50 AM)29.83 "Hg (May 19, 5:50 AM)
Average68 °F74%30.03 "Hg
* Reported May 15 9:50 PM — May 30 9:50 PM, Ceuta, Weather by CustomWeather, © 2015

Note: Actual official high and low records may vary slightly from our data, if they occured in-between our weather recording intervals... More about our weather records

Advertising

Ceuta weather history for previous 24 hours

 ConditionsComfort  
Time TempWeatherWind HumidityBarometerVisibility
9:50 PM
Sat, May 30
77 °FSunny.7 mph54%30.01 "Hg10 mi
8:50 PM75 °FSunny.9 mph61%30.01 "Hg10 mi
7:50 PM79 °FSunny.9 mph54%29.98 "Hg10 mi
6:50 PM81 °FSunny.15 mph51%29.98 "HgN/A
5:50 PM79 °FPassing clouds.16 mph54%29.98 "HgN/A
4:50 PM79 °FPassing clouds.14 mph54%30.01 "HgN/A
3:50 PM81 °FSunny.12 mph51%30.01 "Hg10 mi
2:50 PM79 °FSunny.12 mph54%30.04 "Hg10 mi
1:50 PM79 °FSunny.13 mph54%30.04 "Hg10 mi
12:50 PM77 °FSunny.10 mph57%30.04 "Hg10 mi
11:50 AM77 °FSunny.7 mph61%30.04 "Hg10 mi
10:50 AM73 °FSunny.7 mph69%30.04 "Hg10 mi
9:50 AM72 °FPassing clouds.5 mph73%30.04 "HgN/A
8:50 AM70 °FPassing clouds.9 mph78%30.04 "HgN/A
7:50 AM68 °FPassing clouds.5 mph83%30.04 "HgN/A
6:50 AM68 °FPassing clouds.6 mph83%30.01 "HgN/A
5:50 AM68 °FClear.6 mph78%30.01 "HgN/A
4:50 AM70 °FClear.7 mph73%29.98 "HgN/A
3:50 AM70 °FClear.10 mph73%29.98 "HgN/A
2:50 AM68 °FClear.12 mph78%30.01 "HgN/A
1:50 AM70 °FClear.10 mph78%30.01 "HgN/A
12:50 AM70 °FClear.15 mph73%30.01 "HgN/A
11:50 PM
Fri, May 29
72 °FClear.15 mph69%30.01 "HgN/A
Weather by CustomWeather, © 2015

See weather overviewHow to use our weather pages